Flag for Austria Weather past 2 weeks in Leonding, Upper Austria, Austria

Now
55 °F

Partly cloudy.


Feels Like: 55 °F
Forecast: 54 / 68 °F
Wind: 3 mph from Northwest

Location: Linz / Hoersching-Flughafen

Current Time: Aug 22, 2014 at 4:25:08 AM

Latest Report: Aug 22, 2014 at 3:50 AM


Visibility: N/A

Pressure: 30.04 "Hg

Humidity: 88%

Dew point: 52 °F

Location of LeondingLocation

Historic Weather in Leonding — Graph

°F

Leonding temperature yesterday

Maximum temperature yesterday: 68 °F (at 4:50 PM)
Minimum temperature yesterday: 52 °F (at 6:50 AM)
Average temperature yesterday: 59 °F

Past Weeks' High & Low Weather Summary

 TemperatureHumidityPressure
High82 °F (Aug 9, 4:20 PM)100% (Aug 7, 3:50 AM)30.15 "Hg (Aug 7, 3:50 AM)
Low52 °F (Aug 15, 2:20 AM)39% (Aug 8, 3:50 PM)29.65 "Hg (Aug 13, 6:20 PM)
Average63 °F78%29.97 "Hg
* Reported Aug 7 2:20 AM — Aug 22 2:50 AM, Leonding, Weather by CustomWeather, © 2014

Note: Actual official high and low records may vary slightly from our data, if they occured in-between our weather recording intervals... More about our weather records

Advertising

Leonding weather history for previous 24 hours

 ConditionsComfort  
Time TempWeatherWind HumidityBarometerVisibility
2:50 AM
Aug 22
55 °FPartly cloudy.2 mph88%30.04 "HgN/A
2:20 AM55 °FPartly cloudy.2 mph88%30.04 "HgN/A
1:50 AM57 °FPartly cloudy.2 mph77%30.04 "HgN/A
1:20 AM55 °FPartly cloudy.1 mph88%30.04 "HgN/A
12:50 AM57 °FPassing clouds.3 mph82%30.04 "HgN/A
12:20 AM55 °FPartly cloudy.3 mph82%30.04 "HgN/A
11:50 PM
Aug 21
57 °FPartly cloudy.5 mph82%30.04 "HgN/A
11:20 PM57 °FPartly cloudy.3 mph82%30.04 "HgN/A
10:50 PM57 °FPassing clouds.3 mph82%30.04 "HgN/A
10:20 PM57 °FPassing clouds.2 mph82%30.04 "HgN/A
9:50 PM57 °FPartly cloudy.3 mph82%30.04 "HgN/A
9:20 PM59 °FPartly cloudy.2 mph77%30.04 "HgN/A
8:50 PM59 °FBroken clouds.2 mph82%30.04 "HgN/A
8:20 PM61 °FScattered clouds.3 mph63%30.04 "HgN/A
7:50 PM63 °FScattered clouds.2 mph59%30.04 "HgN/A
7:20 PM64 °FScattered clouds.1 mph52%30.04 "HgN/A
6:50 PM64 °FScattered clouds.2 mph52%30.04 "HgN/A
6:20 PM66 °FScattered clouds.3 mph52%30.04 "HgN/A
5:50 PM66 °FScattered clouds.5 mph52%30.04 "HgN/A
5:20 PM68 °FScattered clouds.5 mph49%30.04 "HgN/A
4:50 PM68 °FPassing clouds.3 mph56%30.04 "HgN/A
4:20 PM66 °FScattered clouds.5 mph56%30.04 "HgN/A
3:50 PM64 °FScattered clouds.9 mph60%30.04 "HgN/A
3:20 PM66 °FScattered clouds.7 mph60%30.04 "HgN/A
2:50 PM64 °FScattered clouds.8 mph60%30.07 "HgN/A
2:20 PM64 °FPassing clouds.8 mph64%30.07 "HgN/A
1:50 PM61 °FScattered clouds.10 mph72%30.07 "HgN/A
1:20 PM63 °FBroken clouds.7 mph77%30.07 "HgN/A
12:50 PM61 °FBroken clouds.8 mph83%30.07 "HgN/A
12:20 PM59 °FSprinkles. Broken clouds.6 mph88%30.07 "HgN/A
11:50 AM59 °FSprinkles. Broken clouds.7 mph88%30.07 "HgN/A
11:20 AM61 °FSprinkles. Broken clouds.6 mph83%30.07 "HgN/A
10:50 AM59 °FBroken clouds.6 mph82%30.07 "HgN/A
10:20 AM57 °FBroken clouds.5 mph88%30.07 "HgN/A
9:50 AM57 °FSprinkles. Broken clouds.6 mph88%30.07 "HgN/A
9:20 AM57 °FBroken clouds.2 mph88%30.07 "HgN/A
8:50 AM55 °FBroken clouds.1 mph94%30.07 "Hg5 mi
8:20 AM55 °FPartly sunny.2 mph94%30.04 "Hg4 mi
7:50 AM55 °FFog.1 mph94%30.04 "Hg1 mi
7:20 AM52 °FFog.1 mph100%30.04 "Hg0 mi
6:50 AM52 °FPartly cloudy.1 mph100%30.04 "Hg1 mi
6:20 AM54 °FCool.2 mph94%30.04 "Hg2 mi
5:50 AM54 °FFog.1 mph94%30.04 "Hg3 mi
5:20 AM54 °FSnow. Fog.3 mph100%30.01 "Hg5 mi
4:50 AM54 °FPartly cloudy.1 mph100%30.04 "Hg5 mi
4:20 AM55 °FLight rain. Partly cloudy.2 mph94%30.04 "Hg5 mi
Weather by CustomWeather, © 2014

See weather overviewHow to use our weather pages